Location: Brachbach
(49.1847°N, 9.7240°E)
Time: 06:22:34
(UTC+00:00)

PCSat - Pass Details

Date: 20 March 2026
Orbit: 780 x 790 km, 67.1° (Epoch: 13 April)

Event Time Altitude Azimuth Distance (km) Brightness Sun altitude
Exits shadow 01:12:04 - 319° (NW) 2,866 12.6 -36.2°
Reaches altitude 10° 01:14:48 10° 342° (NNW) 2,364 12.4 -36.0°
Maximum altitude 01:16:34 12° 2° (N) 2,260 12.5 -35.8°
Drops below altitude 10° 01:18:21 10° 21° (NNE) 2,365 12.8 -35.7°
Sets 01:22:44 0° 54° (NE) 3,294 13.7 -35.3°
